#timestamp,LO_Frequency,Hit,StdDev 
1561579215.1,286047000.2,N
1561579235.9,286047000.8,N
1561579255.7,286046996.8,N
1561579275.6,286046997.1,N
1561579295.4,286046995.5,N
1561579315.2,286046998.0,N
1561579335.1,286046993.6,Y
1561579336.0,286046993.6,P
1561579355.8,286046996.1,N
1561579375.7,286046995.3,N
1561579395.5,286046995.0,Y
1561579415.3,286047002.1,P
1561579435.2,286047003.1,N
1561579455.0,286047006.0,N
1561579455.9,286047006.0,N
1561579475.7,286047004.4,N
1561579495.6,286047002.2,N
1561579515.4,286047002.5,N
1561579535.3,286047002.8,N
1561579555.1,286046999.8,N
1561579556.0,286046999.8,N
1561579575.8,286047001.3,N
1561579595.7,286047002.3,N
1561579645.5,286047004.1,E
1561579655.5,286047000.6,N
1561579675.3,286046996.7,P
1561579695.1,286046997.6,N
1561579715.9,286046995.1,N
1561579735.7,286046997.3,N
1561579755.6,286046998.8,N
1561579775.4,286046997.1,N
1561579795.2,286046996.1,N
1561579815.1,286046994.4,Y
1561579816.0,286046994.4,P
1561579835.8,286046997.5,N
1561579855.6,286046995.3,P
1561579875.5,286046996.6,N
1561579895.3,286046997.0,N
1561579915.2,286046998.9,N
1561579935.9,286046999.1,N
1561579955.7,286046995.1,Y
1561579975.6,286046998.7,P
1561579995.4,286047001.0,N
1561580015.2,286046998.1,N
1561580035.1,286046999.9,N
1561580036.0,286046999.9,N
1561580055.8,286047001.7,N
1561580075.7,286047003.9,N
1561580095.5,286047005.3,N
1561580115.3,286047005.3,N
1561580135.2,286047004.6,N
1561580155.0,286047005.5,N
1561580155.9,286047005.5,N
1561580175.7,286047006.0,N
1561580195.6,286047004.4,N
1561580215.4,286047004.0,N
1561580235.3,286047003.5,N
1561580255.1,286047003.4,N
1561580256.0,286047003.4,N
1561580275.8,286047003.4,N
1561580295.7,286047004.6,N
1561580315.5,286047007.2,N
1561580335.3,286047004.8,N
1561580355.2,286047007.2,N
1561580375.0,286047007.5,N
1561580375.9,286047007.5,N
1561580395.8,286047007.2,N
1561580415.6,286047006.9,N
1561580435.4,286047005.3,N
1561580455.3,286047007.5,N
1561580475.1,286047007.6,N
1561580495.8,286047006.3,N
1561580515.7,286047007.9,Y
1561580535.5,286047003.3,P
1561580555.4,286047003.6,P
1561580575.2,286047005.5,P
1561580595.0,286047005.0,Y
1561580595.9,286047005.0,P
1561580615.8,286047001.4,P
1561580635.6,286047003.5,N
1561580655.5,286047002.9,N
1561580675.3,286047004.6,Y
1561580695.1,286047002.1,P
1561580715.9,286047004.4,P
1561580735.7,286047004.0,P
1561580755.5,286047004.0,Y
1561580775.4,286047000.1,P
1561580795.2,286046999.9,N
1561580815.1,286047002.3,N
1561580816.0,286047002.3,N
1561580835.8,286047002.5,N
1561580855.6,286047004.4,Y
1561580875.5,286046998.4,P
1561580895.3,286047001.1,N
1561580915.1,286046998.3,N
1561580935.9,286046998.3,N
1561580955.7,286046998.7,N
1561580975.6,286046998.6,N
1561580995.4,286046998.7,N
1561581015.2,286046998.2,N
1561581035.1,286047001.1,N
1561581036.0,286047001.1,N
1561581055.8,286047002.1,N
1561581075.6,286047002.2,N
1561581095.5,286047002.8,N
1561581115.3,286046999.8,N
1561581135.2,286047000.5,N
1561581155.9,286046999.8,N
1561581175.7,286047002.4,N
1561581195.6,286047002.4,N
1561581215.4,286047002.2,N
1561581235.2,286047001.9,N
1561581255.1,286047001.6,N
1561581256.0,286047001.6,N
1561581275.8,286047001.9,N
1561581295.7,286047002.7,N
1561581315.5,286047000.1,N
1561581335.3,286047000.9,N
1561581355.2,286047001.2,N
1561581375.0,286047000.6,N
1561581375.9,286047000.6,N
1561581395.8,286046998.9,N
1561581415.6,286046998.7,N
1561581435.4,286046999.2,N
1561581455.3,286046998.7,N
1561581475.1,286046998.3,N
1561581495.8,286046998.7,N
1561581515.7,286046999.5,N
1561581535.5,286046997.0,N
1561581555.4,286046997.7,N
1561581575.2,286046996.8,N
1561581595.0,286046999.6,N
1561581595.9,286046999.6,N
1561581615.8,286046997.7,N
1561581635.6,286046995.0,N
1561581655.5,286046995.1,N
1561581675.3,286046997.5,N
1561581695.1,286046999.5,N
1561581715.9,286046999.3,N
1561581735.7,286046996.6,N
1561581755.5,286046999.9,N
1561581775.4,286046998.2,N
1561581795.2,286046998.8,N
1561581815.1,286046996.8,N
1561581816.0,286046996.8,N
1561581835.8,286046996.6,N
1561581855.6,286046997.0,N
1561581875.5,286046999.2,N
1561581895.3,286046996.5,N
1561581915.2,286046999.2,N
1561581935.9,286046996.6,N
1561581955.7,286046998.2,N
1561581975.6,286046999.0,N
1561581995.4,286046999.4,N
1561582015.3,286046996.9,N
1561582035.1,286046999.5,N
1561582036.0,286046999.5,N
1561582055.8,286046999.0,N
1561582075.7,286046998.8,N
1561582095.5,286047001.1,N
1561582115.3,286047002.7,N
1561582135.2,286047002.3,N
1561582155.0,286047002.1,N
1561582155.9,286047002.1,N
1561582175.8,286047004.2,N
1561582195.6,286047001.9,N
1561582215.4,286047002.7,N
1561582235.3,286047002.3,N
1561582255.1,286046999.7,N
1561582275.8,286047002.4,N
1561582295.7,286047002.6,N
1561582315.5,286047002.4,N
1561582335.4,286047002.7,N
1561582355.2,286046999.7,N
1561582375.0,286047001.5,N
1561582375.9,286047001.5,N
1561582395.8,286047000.0,N
1561582415.6,286047000.0,N
1561582435.4,286046998.4,N
1561582455.3,286047000.9,N
1561582475.1,286047002.7,N
1561582495.9,286047000.6,N
1561582515.7,286047000.8,N
1561582535.5,286047000.3,N
1561582555.4,286047000.3,N
1561582575.2,286047000.5,N
1561582595.0,286047001.0,N
1561582595.9,286047001.0,N
1561582615.8,286047000.9,N
1561582635.6,286047000.6,N
1561582655.5,286047002.3,N
1561582675.3,286047002.5,N
1561582695.1,286047001.6,N
1561582715.9,286047003.9,Y
1561582735.7,286047002.0,P
1561582755.6,286047001.9,P
1561582775.4,286047003.8,P
1561582795.2,286047001.5,N
